Regional Weather Roundup
Issued by NWS Sioux Falls, SD

Home | Current Version | Previous Version | Graphics & Text | Print | Product List | Glossary On
Versions: 1 2 3 4 5 6 7 8 9 10 11 12 13 14 15 16 17 18 19 20 21 22 23 24 25 26 27 28 29 30 31 32 33 34 35 36 37 38 39 40 41 42 43 44 45 46 47 48 49 50
000
ASUS43 KFSD 252210
RWRFSD

WEATHER ROUNDUP FOR SE SOUTH DAKOTA/SW MINNESOTA/NW IOWA
NATIONAL WEATHER SERVICE SIOUX FALLS SD
500 PM CDT FRI JUL 25 2014

NOTE: "FAIR" INDICATES FEW OR NO CLOUDS BELOW 12,000 FEET WITH NO
SIGNIFICANT WEATHER AND OR OBSTRUCTIONS TO VISIBILITY.


SDZ038>040-050-052>070-252300-
SOUTHEAST SOUTH DAKOTA

CITY           SKY/WX    TMP DP  RH WIND       PRES   REMARKS
CHAMBERLAIN    MOSUNNY   87  69  54 NE12      29.79S
HURON          CLOUDY    79  68  69 N12       29.79S
MADISON        FAIR      82  72  69 NW3       29.79F
MITCHELL       SUNNY     84  70  62 N14G22    29.78F
SIOUX FALLS    MOSUNNY   86  71  60 VRB3      29.78S
WINNER         FAIR      92  63  38 VRB3      29.81F
YANKTON        SUNNY     88  73  62 NE6       29.76S HX  96
$$

MNZ071-072-080-081-089-090-097-098-252300-
SOUTHWEST MINNESOTA

CITY           SKY/WX    TMP DP  RH WIND       PRES   REMARKS
FAIRMONT       CLOUDY    77  61  57 S10       29.80S
JACKSON        CLOUDY    79  68  69 SW5       29.80F
LUVERNE        MOSUNNY   82  70  65 CALM      29.79S
MARSHALL       PTSUNNY   82  68  61 W6        29.77S
MONTEVIDEO     CLOUDY    82  72  69 NW5       29.77R
PIPESTONE      PTSUNNY   81  72  74 NW5       29.80F
REDWOOD FALLS  CLOUDY    83  71  67 S8        29.76S
TRACY          PTSUNNY   84  73  67 NW8       29.78S
WINDOM         CLOUDY    81  70  69 SW5       29.79S
WORTHINGTON    CLOUDY    79  72  78 W5        29.81S
$$

IAZ001>003-012>014-020>022-031-032-NEZ013-014-SDZ071-252300-
NORTHWEST IOWA

CITY           SKY/WX    TMP DP  RH WIND       PRES   REMARKS
CHEROKEE       CLOUDY    80  71  75 S3        29.78F
DENISON        PTSUNNY   84  73  70 CALM      29.76S
ESTHERVILLE    CLOUDY    77  69  76 S9        29.80F
LE MARS        CLOUDY    82  72  69 CALM      29.78S
ORANGE CITY    PTSUNNY   82  70  65 CALM      29.79S
SHELDON        CLOUDY    81  70  69 CALM      29.78F
SIOUX CITY     CLOUDY    87  73  62 N3        29.76S
SPENCER        CLOUDY    79  70  74 S6        29.80S
STORM LAKE     CLOUDY    77  72  83 S5        29.81S
$$

ABBREVIATIONS USED IN REMARKS
   TC - TEMPERATURE IN CELSIUS
  WCI - WIND CHILL INDEX
   HX - HEAT INDEX
  VSB - VISIBILITY



USA.gov is the U.S. government's official web portal to all federal, state and local government web resources and services.